SITRO-AIS 28

Last updated on Thu Nov 21 2024 00:03:40 GMT+0000 (Coordinated Universal Time)

1 59071U 24039U 24325.58839261 .00006164 00000+0 55218-3 0 9998 2 59071 95.3879 203.4672 0163273 162.8445 197.8388 14.86262711 39319
UTC large
Height (km)
Speed (km/s)
/
Latitude / Longitude
Inclination (degrees)
Orbital Period (minutes)
Azimuth
Elevation
Range (km)
Doppler Factor

Next 0 passes for location: London (51.5072 / 0.1276)

Sorry there are no passes over London.